Torna al catalogo

DELTA 1 DEB

AttivoLEO
NORAD 27729·DEBRIS·🇺🇸 United States

Lanciato Jul 14, 1977 da Cape Canaveral Space Force Station

Loading…

Prossimi Passaggi (prossime 24 ore)

TLE

AggiornatoSource: Space-Track

Epoca: Sep 14, 2026, 07:03 UTC

1 27729U 77065GH  26257.29419230  .00006266  00000-0  10433-2 0  9997
2 27729  28.6422 328.6493 0362974 188.9398 170.4571 14.32990951714892

Traccia DELTA 1 DEB in tempo reale con AllMySat

Download on the App Store